ワイズ彗星

P/2010 JC81 ( WISE )

English version
Home page
Updated on May 7, 2015

---------------------------------------------------------------------

・ プロフィール

発見日 2010年5月10日
発見光度
発見者 Wide Field Infrared Survey Explorer (NASA)

・ 写真集

・ 軌道要素

Epoch 2011 Apr. 29.0 TT = JDT 2455680.5
T 2011 Apr. 26.56117 TT                                 MPC
q   1.8107243            (2000.0)            P               Q
n   0.04243604     Peri.   12.57244     +0.75172638     -0.57675577
a   8.1404072      Node    30.76799     +0.53791199     +0.25572144
e   0.7775634      Incl.   38.69004     +0.38152083     +0.77586038
P  23.2
From 538 observations 2010 May 10-2013 June 12, mean residual 0".5.

・ 星図

・ 光度変化

        H = 13.0  G = 0.15                        [    ,-120]  (              〜2010年12月27日)
        m1 =  7.0 + 5 logΔ + 20.0 log r(t - 75)  [-120,  75]  (2010年12月27日〜2011年 7月10日)
        m1 =  8.3 + 5 logΔ + 15.0 log r(t - 75)  [  75, 300]  (2011年 7月10日〜2012年 2月20日)
        m1 = 11.3 + 5 logΔ +  7.5 log r          [ 300,    ]  (2012年 2月20日〜              )

---------------------------------------------------------------------

軌道要素はM.P.E.C. 2013-O31に掲載されたものです。
星図はステラナビゲータ Ver.8 (アストロアーツ) で作成したものです。
光度グラフはComet for Windowsで作成したものです。

---------------------------------------------------------------------

Copyright(C) Seiichi Yoshida (comet@aerith.net). All rights reserved.